{"data":{"norad_id":62069,"epoch":"2026-09-21T05:52:59.179296Z","epoch_age_seconds":116760,"freshness":"FRESH","line1":"1 62069U 24217N   26264.24512939  .00116299  00000+0  95025-3 0  9995","line2":"2 62069  53.1569 187.5353 0001245 126.1487 233.9646 15.69738833105829","mean_motion":15.69738833,"eccentricity":0.0001245,"inclination_deg":53.1569,"raan_deg":187.5353,"arg_perigee_deg":126.1487,"mean_anomaly_deg":233.9646,"bstar":0.00095025,"rev_number":10582,"period_min":91.735005194969,"perigee_km":358.8053889087,"apogee_km":360.48309643812,"semimajor_km":6737.7812426734,"source":"CELESTRAK","updated_at":"2026-09-22T09:00:49.494089Z"}}